Zurück zum Katalog

STARLINK-2609

AktivKommunikationVLEO
NORAD 48373·PAYLOAD·🇺🇸 United States

Gestartet May 4, 2021 von Cape Canaveral Space Force Station

Loading…

Nächste Überflüge (nächste 24 Stunden)

TLE

AktuellSource: CelesTrak SupGP

Epoche: Sep 14, 2026, 14:16 UTC

1 48373C 21038W   26257.59493056  .00024826  00000+0  79866-3 0  2579
2 48373  53.1606 186.3588 0001313  87.9035 273.8465 15.31676486    10

Verfolge STARLINK-2609 in Echtzeit mit AllMySat

Download on the App Store